FENGYUN 1C DEB, 36680

Orbit data source: Space-Track

FENGYUN 1C DEB, 36680 is space debris in SSO originally from a launch on Mon, 10 May 1999 UTC launched from the Taiyaun Space Center, China (TSC). Fengyun 1C debris stems from the Chinese weather satellite Fengyun-1C, which was intentionally destroyed by a Chinese anti-satellite missile in 2007. This event dramatically increased the amount of space debris, with thousands of trackable fragments posing hazards to satellites and human spaceflight. The Fengyun 1C debris cloud has become a focal point in discussions about space sustainability and the need for international regulations to prevent the creation of new debris.

Loading next visibility...
Identifier
36680, 1999-025DZA
Orbit
SSO
Country
Flag of CNCN / PRC
Related business
Manufacturer
Unknown
Mission
Spacecraft
Bus & Motor
Unknown
Mass
Unknown
Launch date (UTC)
1999-05-10 (27 years ago)
Launch vehicle
Unknown
Launch site
Taiyaun Space Center, China (TSC)
Object type
Payload
Rocket body
Debris
Shape & HBR
Unknown shape, 0.1 m
Radar Cross Section
Small (<0.1 m²)

Expand to show TLE details & history
Last TLE update: 1 week ago

TLE from 1 week ago
0 FENGYUN 1C DEB
1 36680U 99025DZA 26258.44540844  .00000480  00000-0  20947-3 0  9991
2 36680  98.5689 246.2617 0188070 169.1916 343.6224 14.19201642682218
Epoch: 2026-09-15T10:41Z
TLE epoch observation values (Epoch: 2026-09-15T10:41:23.289Z)
Latitude
27.51327°
Longitude
-84.01952°
Altitude
701.579 km
Speed
7.575 km/s
True Right ascension
04h 42m 57s
True Declination
27° 22' 17"
Sunlit
Object was in daylight at epoch
Visualization orbit readout
Latitude
Unknown
Longitude
Unknown
Altitude
Unknown
Speed
Unknown
Apparent Right ascension
Unknown
Apparent Declination
Unknown
Sunlit
N/A
Visualization observer readout
Local Sidereal Time
11:47:16
Azimuth
Unknown
Elevation
Unknown
Doppler factor
Unknown
Orbital elements
Apogee altitude
960.679 km
Perigee altitude
689.732 km
Semi-major axis
7,203.343 km
Eccentricity
0.01881
Inclination
98.5689°
RAAN
246.2617°
Arg. of periapsis
169.1916°
True anomaly
343.00073°
Mean anomaly
343.6224°
Eccentric anomaly
343.31299°
Mean motion
3.55011 °/min
Orbital period
101.41 mins
BSTAR
0.00020947
Loading maneuver chart data...
Computing Atmospheric mass density...

Documentation

Showing up to 5 results
|